Regional Weather Roundup
Issued by NWS

Home | Current Version | Previous Version | Graphics & Text | Print | Product List | Glossary Off
Versions: 1 2 3 4 5 6 7 8 9 10 11 12 13 14 15 16 17 18 19 20 21 22 23 24 25 26 27 28 29 30 31 32 33 34 35 36 37 38 39 40 41 42 43 44 45 46 47 48 49 50

000
ASUS43 KTOP 250759
RWRKS

WEATHER ROUNDUP FOR KANSAS
NATIONAL WEATHER SERVICE GOODLAND KS
300 AM CDT MON JUL 25 2016

NOTE:  "FAIR" INDICATES FEW OR NO CLOUDS BELOW 12,000 FEET WITH NO
SIGNIFICANT WEATHER AND/OR OBSTRUCTIONS TO VISIBILITY.

KSZ001>006-013>018-027>032-041>047-250900-
NORTHWEST KANSAS

CITY           SKY/WX    TMP DP  RH WIND       PRES   REMARKS
GOODLAND       PTCLDY    64  59  83 S8        30.12F
HAYS           CLOUDY    72  57  60 NW13      30.11R THUNDER
HILL CITY      CLOUDY    72  63  73 S5        30.07F
RUSSELL        CLOUDY    71  64  78 NE8       30.02R
$$

KSZ061>065-074>080-084>089-250900-
SOUTHWEST KANSAS

CITY           SKY/WX    TMP DP  RH WIND       PRES   REMARKS
DODGE CITY     RAIN      67  66  97 N16G29    30.12F
ELKHART          N/A     69  66  90 NE9         N/A
GARDEN CITY    CLOUDY    66  64  93 E16       30.11F
GREAT BEND     CLOUDY    70  61  73 W18G37    30.08R THUNDER
LIBERAL        CLOUDY    70  63  78 E16       30.11F
$$

KSZ066>073-081>083-090>101-250900-
SOUTHEAST KANSAS

CITY           SKY/WX    TMP DP  RH WIND       PRES   REMARKS
CHANUTE        PTCLDY    78  70  76 N10G23    29.98R
COFFEYVILLE    CLEAR     82  74  76 S7        29.93S
HUTCHINSON     PTCLDY    79  75  87 E9        29.97R
NEWTON         CLOUDY    80  75  84 SE8       29.98S
PARSONS        CLEAR     81  74  79 SE3       29.95S
WICHITA INTL   CLOUDY    86  71  60 S9        29.96R
WICHITA JABRA  PTCLDY    78  75  90 NE6       29.97R
WINFIELD       CLEAR     81  73  76 S7        29.95S
$$

KSZ007>012-019>026-033>040-048>060-102>105-250900-
NORTHEAST KANSAS

CITY           SKY/WX    TMP DP  RH WIND       PRES   REMARKS
CONCORDIA      MOCLDY    71  64  78 E7        30.03R
EMPORIA        MOCLDY    76  65  68 NE7       29.99R
LAWRENCE       CLOUDY    75  72  90 N7        30.01R
MANHATTAN      CLOUDY    73  68  84 NE7       29.99R
OLATHE IND     CLOUDY    77  71  82 NW12      30.02R THUNDER
OLATHE EXE     CLOUDY    78  70  76 NW6       30.01R
SALINA         CLOUDY    76  68  76 NE7       30.00R
TOPEKA BILLARD CLOUDY    75  68  78 CALM      30.00S
TOPEKA FORBES  CLOUDY    76  73  91 N5        29.99S
$$



USA.gov is the U.S. government's official web portal to all federal, state and local government web resources and services.